TimeCDT,TemperatureF,Dew PointF,Humidity,Sea Level PressureIn,VisibilityMPH,Wind Direction,Wind SpeedMPH,Gust SpeedMPH,PrecipitationIn,Events,Conditions,WindDirDegrees,DateUTC
12:55 AM,64.0,55.9,75,29.69,10.0,NNE,6.9,-,N/A,,Clear,30,2013-09-27 05:55:00
1:55 AM,62.1,55.9,80,29.69,10.0,Calm,Calm,-,N/A,,Partly Cloudy,0,2013-09-27 06:55:00
2:55 AM,59.0,57.0,93,29.68,7.0,NW,3.5,-,0.08,,Clear,320,2013-09-27 07:55:00
3:55 AM,57.9,55.0,90,29.67,7.0,NNW,6.9,-,N/A,,Clear,330,2013-09-27 08:55:00
4:55 AM,57.9,55.0,90,29.66,7.0,NNW,3.5,-,N/A,,Clear,330,2013-09-27 09:55:00
5:55 AM,57.0,55.0,93,29.66,5.0,NNW,5.8,-,N/A,,Clear,330,2013-09-27 10:55:00
6:55 AM,55.0,54.0,96,29.66,4.0,NNW,4.6,-,N/A,,Clear,330,2013-09-27 11:55:00
7:55 AM,54.0,52.0,93,29.67,4.0,WNW,4.6,-,N/A,,Clear,300,2013-09-27 12:55:00
8:55 AM,55.9,53.1,90,29.68,7.0,WNW,5.8,-,N/A,,Clear,300,2013-09-27 13:55:00
9:55 AM,61.0,55.0,81,29.68,10.0,NW,5.8,-,N/A,,Clear,310,2013-09-27 14:55:00
11:55 AM,69.1,54.0,58,29.68,10.0,West,8.1,-,N/A,,Mostly Cloudy,280,2013-09-27 16:55:00
1:55 PM,68.0,48.9,50,29.73,10.0,WNW,10.4,-,N/A,,Clear,290,2013-09-27 18:55:00
2:55 PM,66.9,48.0,51,29.73,10.0,NW,12.7,20.7,N/A,,Clear,310,2013-09-27 19:55:00
3:55 PM,64.0,48.0,56,29.75,10.0,WNW,12.7,19.6,N/A,,Clear,300,2013-09-27 20:55:00
4:55 PM,61.0,46.9,60,29.77,10.0,NW,15.0,-,N/A,,Scattered Clouds,320,2013-09-27 21:55:00
5:55 PM,57.0,48.0,72,29.79,10.0,NW,10.4,17.3,0.00,Rain,Light Rain,310,2013-09-27 22:55:00
6:55 PM,55.9,48.9,77,29.80,10.0,NW,6.9,-,0.00,,Mostly Cloudy,320,2013-09-27 23:55:00
7:55 PM,55.0,48.9,80,29.80,10.0,North,-9999.0,-,N/A,,Mostly Cloudy,0,2013-09-28 00:55:00
9:55 PM,53.1,50.0,89,29.80,6.0,North,5.8,-,0.06,Rain,Rain,360,2013-09-28 02:55:00
10:38 PM,53.6,51.8,94,29.77,5.0,North,6.9,-,0.13,Rain,Rain,360,2013-09-28 03:38:00
10:55 PM,53.1,52.0,96,29.77,8.0,NNW,6.9,-,0.16,Rain,Light Rain,340,2013-09-28 03:55:00
11:55 PM,53.1,52.0,96,29.76,10.0,NW,13.8,-,0.01,Rain,Light Rain,320,2013-09-28 04:55:00